Location: *
(42.5628°N, 2.3633°E)
Time: 00:23:09
(UTC+00:00)

COSMOS 2455 - Pass Details

Date: 30 March 2020
Orbit: 899 x 910 km, 67.1° (Epoch: 05 June)

Event Time Altitude Azimuth Distance (km) Brightness Sun altitude
Rises 21:07:45 0° 335° (NNW) 3,542 6.9 -29.9°
Reaches altitude 10° 21:10:33 10° 345° (NNW) 2,599 5.9 -30.3°
Enters shadow 21:15:06 31° 33° (NNE) 1,544 4.0 -30.9°
